Погода в Азееве

Россия / Рязанская область     54°40′10″N   42°01′40″E
темп.,
°C
ветер,
м/с
пор.,
м/с
влажн.,
%
обл.,
%
осадки,
мм/ч
давл.,
гПа
погр.,
м
21 апреля, ср
ср2100:00+5в91793100 4.2 1011941
03:00+5вюв112089100 7.8 10071111
06:00+7юв101889100 0.7 10051013
09:00+8юв101787100 1.1 1006979
12:00+9ююв8138892 0.3 1007953
15:00+6з4691100 1.0 1009355
18:00+5зюз4895100 2.1 1011578
21:00+5юз4988100 2.3 1014641
22 апреля, чт
чт2200:00+5ююз41087100 0.0 1015508
03:00+5ююв3592100 0.0 1016160
06:00+5ююз389591 0.5 1016404
09:00+6юз478289 0.8 1018805
12:00+10ююз466460 0.0 10191316
15:00+11юз5757100 0.1 10191597
18:00+10ю3668100 0.0 1019123
21:00+7ю498419 0.0 1020148
23 апреля, пт
пт2300:00+6ююв498466 0.0 1020148
03:00+6ю4108432 0.0 1020182
06:00+6ю4108289 0.0 1020198
09:00+13ю596190 0.0 1020463
12:00+15ю684798 0.0 10202123
15:00+15ю4749100 0.0 10181959
18:00+14ююв48585 0.0 1017306
21:00+9юв4107494 0.0 1017182
24 апреля, сб
сб2400:00+8юв410805 0.0 1015197
03:00+7юв49925 0.4 1013190
06:00+8юв512895 0.0 1011330
09:00+12ю7107088 0.2 1009798
12:00+14ююз71064100 1.0 10071528
15:00+4зсз6992100 2.1 1009555
18:00+6зсз4787100 1.4 1008682
21:00+4зюз359152 1.5 1009110
25 апреля, вс
вс2500:00+3зюз49905 0.1 1009198
03:00+1зюз4108762 0.1 1009245
06:00+2зюз411875 0.0 1010331
09:00+6зюз69686 0.0 10101088
12:00+8зюз7952100 0.6 10111967
15:00+9зюз7950100 0.8 10112133
18:00+7зюз695720 0.7 10111169
21:00+3юз411749 0.8 1013277